| time (UTC) | temp F | wind direction | speed MPH | gust MPH | rain 1hr in | rain 24hr in | rain mn in | humidity % | barometer mb |
| 20260505072604 | 68 | 106 | 3.0 | 8.0 | 0.00 | 0.01 | 0.01 | 59 | 1019.0 |
| 20260505072104 | 68 | 231 | 2.0 | 3.0 | 0.00 | 0.01 | 0.01 | 58 | 1018.9 |
| 20260505071604 | 69 | 101 | 2.0 | 3.0 | 0.00 | 0.01 | 0.01 | 56 | 1018.8 |
| 20260505071104 | 70 | 119 | 2.0 | 6.0 | 0.00 | 0.01 | 0.01 | 54 | 1018.8 |
| 20260505070604 | 70 | 229 | 2.0 | 3.0 | 0.00 | 0.01 | 0.01 | 46 | 1018.7 |
| 20260505070104 | 71 | 261 | 1.0 | 3.0 | 0.00 | 0.01 | 0.01 | 46 | 1018.5 |
| 20260505065604 | 71 | 261 | 1.0 | 3.0 | 0.00 | 0.01 | 0.01 | 46 | 1018.6 |
| 20260505065104 | 71 | 277 | 3.0 | 8.0 | 0.00 | 0.01 | 0.01 | 46 | 1018.3 |
| 20260505064604 | 71 | 260 | 2.0 | 3.0 | 0.00 | 0.01 | 0.01 | 46 | 1018.3 |
| 20260505064104 | 72 | 280 | 3.0 | 5.0 | 0.00 | 0.01 | 0.01 | 45 | 1018.3 |
| 20260505063104 | 72 | 271 | 6.0 | 9.0 | 0.00 | 0.01 | 0.01 | 44 | 1018.2 |
| 20260505062604 | 72 | 274 | 6.0 | 10.0 | 0.00 | 0.01 | 0.01 | 44 | 1018.2 |
| 20260505062104 | 73 | 292 | 5.0 | 9.0 | 0.00 | 0.01 | 0.01 | 44 | 1018.1 |
| 20260505061604 | 73 | 275 | 1.0 | 3.0 | 0.00 | 0.01 | 0.01 | 44 | 1018.1 |
| 20260505061104 | 73 | 236 | 4.0 | 5.0 | 0.00 | 0.01 | 0.01 | 44 | 1018.1 |
| 20260505060604 | 73 | 292 | 1.0 | 5.0 | 0.00 | 0.01 | 0.01 | 44 | 1018.0 |
| 20260505055604 | 73 | 284 | 3.0 | 10.0 | 0.00 | 0.01 | 0.01 | 43 | 1017.9 |
| 20260505055104 | 73 | 291 | 5.0 | 10.0 | 0.00 | 0.01 | 0.01 | 44 | 1018.0 |
| 20260505054604 | 73 | 310 | 2.0 | 12.0 | 0.00 | 0.01 | 0.01 | 43 | 1018.0 |
| 20260505054103 | 73 | 299 | 5.0 | 10.0 | 0.00 | 0.01 | 0.01 | 44 | 1018.0 |
| 20260505053604 | 73 | 286 | 5.0 | 9.0 | 0.00 | 0.01 | 0.01 | 43 | 1018.0 |
| 20260505053104 | 73 | 276 | 5.0 | 10.0 | 0.00 | 0.01 | 0.01 | 44 | 1018.0 |
| 20260505052604 | 73 | 285 | 5.0 | 10.0 | 0.00 | 0.01 | 0.01 | 45 | 1018.0 |
| 20260505052104 | 73 | 256 | 5.0 | 9.0 | 0.00 | 0.01 | 0.01 | 43 | 1017.9 |
| 20260505051104 | 74 | 242 | 5.0 | 12.0 | 0.00 | 0.01 | 0.01 | 43 | 1017.9 |
| 20260505050604 | 73 | 252 | 5.0 | 8.0 | 0.00 | 0.01 | 0.01 | 44 | 1017.8 |
| 20260505050104 | 73 | 353 | 2.0 | 9.0 | 0.00 | 0.01 | 0.01 | 44 | 1017.8 |
| 20260505041604 | 73 | 309 | 6.0 | 8.0 | 0.00 | 0.01 | 0.01 | 45 | 1017.3 |
| 20260505040603 | 73 | 253 | 7.0 | 12.0 | 0.00 | 0.01 | 0.01 | 46 | 1017.6 |
| 20260505035604 | 73 | 277 | 6.0 | 12.0 | 0.00 | 0.01 | 0.01 | 45 | 1017.6 |
| 20260505035104 | 73 | 267 | 5.0 | 10.0 | 0.00 | 0.01 | 0.01 | 46 | 1017.6 |
| 20260505034604 | 72 | 280 | 3.0 | 15.0 | 0.00 | 0.01 | 0.01 | 45 | 1017.4 |
| 20260505034104 | 72 | 270 | 5.0 | 16.0 | 0.00 | 0.01 | 0.01 | 47 | 1017.6 |
| 20260505033605 | 72 | 240 | 5.0 | 12.0 | 0.00 | 0.01 | 0.01 | 48 | 1017.7 |
| 20260505033104 | 72 | 249 | 3.0 | 8.0 | 0.00 | 0.01 | 0.01 | 47 | 1017.6 |
| 20260505032604 | 73 | 282 | 8.0 | 12.0 | 0.00 | 0.01 | 0.01 | 48 | 1017.6 |
| 20260505032104 | 74 | 313 | 3.0 | 7.0 | 0.00 | 0.01 | 0.01 | 50 | 1017.8 |
| 20260505031605 | 72 | 311 | 2.0 | 8.0 | 0.00 | 0.01 | 0.01 | 51 | 1017.7 |
| 20260505031105 | 71 | 286 | 2.0 | 5.0 | 0.00 | 0.01 | 0.01 | 52 | 1017.8 |
| 20260505030604 | 71 | 224 | 3.0 | 10.0 | 0.00 | 0.01 | 0.01 | 52 | 1017.9 |
| 20260505030104 | 72 | 268 | 4.0 | 10.0 | 0.00 | 0.01 | 0.01 | 50 | 1017.9 |
| 20260505025604 | 72 | 270 | 4.0 | 10.0 | 0.00 | 0.01 | 0.01 | 50 | 1018.0 |
| 20260505025104 | 71 | 287 | 8.0 | 13.0 | 0.00 | 0.01 | 0.01 | 50 | 1018.1 |
| 20260505024604 | 71 | 294 | 7.0 | 12.0 | 0.00 | 0.01 | 0.01 | 50 | 1018.2 |
| 20260505024103 | 71 | 254 | 7.0 | 12.0 | 0.00 | 0.01 | 0.01 | 51 | 1018.0 |
| 20260505023604 | 71 | 248 | 4.0 | 15.0 | 0.00 | 0.01 | 0.01 | 51 | 1018.0 |
| 20260505023104 | 71 | 286 | 9.0 | 13.0 | 0.00 | 0.01 | 0.01 | 50 | 1018.2 |
| 20260505022604 | 71 | 280 | 4.0 | 14.0 | 0.00 | 0.01 | 0.01 | 52 | 1018.1 |
| 20260505022103 | 70 | 290 | 5.0 | 14.0 | 0.00 | 0.01 | 0.01 | 52 | 1018.2 |
| 20260505021104 | 70 | 275 | 6.0 | 13.0 | 0.00 | 0.01 | 0.01 | 52 | 1018.2 |
| 20260505020604 | 71 | 285 | 7.0 | 17.0 | 0.00 | 0.01 | 0.01 | 52 | 1018.3 |
| 20260505020104 | 70 | 268 | 7.0 | 13.0 | 0.00 | 0.01 | 0.01 | 53 | 1018.5 |
| 20260505015604 | 70 | 273 | 7.0 | 16.0 | 0.00 | 0.02 | 0.01 | 52 | 1018.6 |
| 20260505014104 | 70 | 287 | 10.0 | 17.0 | 0.00 | 0.04 | 0.01 | 53 | 1018.7 |
| 20260505013604 | 70 | 290 | 9.0 | 12.0 | 0.00 | 0.06 | 0.01 | 54 | 1018.8 |
| 20260505012603 | 70 | 313 | 6.0 | 12.0 | 0.00 | 0.08 | 0.01 | 54 | 1018.9 |
| 20260505012104 | 69 | 292 | 5.0 | 12.0 | 0.00 | 0.09 | 0.01 | 55 | 1019.0 |
| 20260505011604 | 69 | 291 | 9.0 | 16.0 | 0.00 | 0.09 | 0.01 | 55 | 1019.1 |
| 20260505011105 | 69 | 300 | 7.0 | 15.0 | 0.00 | 0.10 | 0.01 | 56 | 1019.1 |
| 20260505010103 | 68 | 278 | 5.0 | 14.0 | 0.00 | 0.10 | 0.01 | 57 | 1019.3 |
| 20260505005604 | 68 | 297 | 12.0 | 17.0 | 0.00 | 0.11 | 0.01 | 56 | 1019.4 |
| 20260505005104 | 68 | 278 | 8.0 | 21.0 | 0.00 | 0.12 | 0.01 | 57 | 1019.3 |
| 20260505004604 | 68 | 280 | 9.0 | 15.0 | 0.00 | 0.13 | 0.01 | 58 | 1019.5 |
| 20260505004104 | 67 | 287 | 13.0 | 18.0 | 0.00 | 0.14 | 0.01 | 57 | 1019.5 |
| 20260505003603 | 68 | 301 | 11.0 | 20.0 | 0.00 | 0.16 | 0.01 | 58 | 1019.5 |
| 20260505002604 | 67 | 285 | 9.0 | 16.0 | 0.00 | 0.17 | 0.01 | 59 | 1019.6 |
| 20260505002104 | 67 | 274 | 10.0 | 20.0 | 0.00 | 0.17 | 0.01 | 59 | 1019.6 |
| 20260505001604 | 67 | 291 | 11.0 | 15.0 | 0.00 | 0.18 | 0.01 | 61 | 1019.6 |
| 20260505001103 | 67 | 288 | 5.0 | 10.0 | 0.00 | 0.18 | 0.01 | 64 | 1019.7 |
| 20260505000603 | 67 | 311 | 8.0 | 13.0 | 0.00 | 0.19 | 0.01 | 63 | 1019.7 |
| 20260505000104 | 66 | 288 | 3.0 | 14.0 | 0.00 | 0.19 | 0.01 | 64 | 1019.7 |
| 20260504235603 | 66 | 286 | 7.0 | 13.0 | 0.00 | 0.19 | 0.01 | 64 | 1019.7 |
| 20260504234604 | 66 | 299 | 7.0 | 13.0 | 0.00 | 0.20 | 0.01 | 66 | 1019.8 |
| 20260504234104 | 65 | 318 | 7.0 | 12.0 | 0.00 | 0.20 | 0.01 | 65 | 1019.9 |
| 20260504233104 | 65 | 266 | 2.0 | 5.0 | 0.00 | 0.21 | 0.01 | 67 | 1020.0 |
| 20260504232604 | 65 | 289 | 3.0 | 7.0 | 0.00 | 0.22 | 0.01 | 67 | 1020.0 |
| 20260504232104 | 64 | 300 | 6.0 | 15.0 | 0.00 | 0.22 | 0.01 | 67 | 1020.0 |
| 20260504231604 | 64 | 301 | 7.0 | 13.0 | 0.00 | 0.22 | 0.01 | 67 | 1020.0 |
| 20260504231104 | 63 | 301 | 10.0 | 18.0 | 0.00 | 0.22 | 0.01 | 67 | 1019.8 |
| 20260504230604 | 63 | 286 | 6.0 | 12.0 | 0.00 | 0.22 | 0.01 | 67 | 1019.8 |
| 20260504225604 | 63 | 308 | 4.0 | 10.0 | 0.00 | 0.22 | 0.01 | 69 | 1019.8 |
| 20260504224104 | 62 | 320 | 5.0 | 10.0 | 0.00 | 0.22 | 0.01 | 73 | 1019.6 |
| 20260504223604 | 61 | 312 | 5.0 | 10.0 | 0.00 | 0.22 | 0.01 | 74 | 1019.6 |
| 20260504223104 | 61 | 335 | 7.0 | 10.0 | 0.00 | 0.22 | 0.01 | 76 | 1019.7 |
| 20260504222605 | 60 | 320 | 5.0 | 10.0 | 0.00 | 0.22 | 0.01 | 78 | 1019.9 |
| 20260504222104 | 60 | 321 | 5.0 | 9.0 | 0.00 | 0.22 | 0.01 | 80 | 1019.8 |
| 20260504221604 | 59 | 327 | 7.0 | 10.0 | 0.00 | 0.22 | 0.01 | 81 | 1019.7 |
| 20260504221104 | 59 | 327 | 7.0 | 12.0 | 0.00 | 0.22 | 0.01 | 82 | 1019.8 |
| 20260504220104 | 58 | 314 | 5.0 | 9.0 | 0.00 | 0.22 | 0.01 | 85 | 1019.9 |
| 20260504215104 | 57 | 285 | 4.0 | 6.0 | 0.01 | 0.22 | 0.01 | 89 | 1019.8 |
| 20260504214605 | 56 | 290 | 3.0 | 3.0 | 0.01 | 0.22 | 0.01 | 90 | 1019.7 |
| 20260504214104 | 56 | 284 | 2.0 | 3.0 | 0.01 | 0.22 | 0.01 | 92 | 1019.6 |
| 20260504213104 | 55 | 297 | 2.0 | 3.0 | 0.01 | 0.22 | 0.01 | 92 | 1019.3 |
| 20260504212603 | 55 | 336 | 1.0 | 3.0 | 0.01 | 0.22 | 0.01 | 92 | 1019.2 |
| 20260504212104 | 54 | 336 | 1.0 | 2.0 | 0.01 | 0.22 | 0.01 | 92 | 1019.3 |
| 20260504211604 | 54 | 336 | 1.0 | 3.0 | 0.01 | 0.22 | 0.01 | 92 | 1019.2 |
| 20260504211104 | 54 | 15 | 2.0 | 3.0 | 0.01 | 0.22 | 0.01 | 92 | 1019.2 |
| 20260504210605 | 53 | 66 | 0.0 | 1.0 | 0.01 | 0.22 | 0.01 | 92 | 1019.1 |
| 20260504210105 | 53 | 66 | 1.0 | 2.0 | 0.01 | 0.22 | 0.01 | 92 | 1019.0 |
| 20260504205605 | 53 | 43 | 0.0 | 2.0 | 0.00 | 0.21 | 0.00 | 91 | 1018.8 |
| 20260504204604 | 53 | 46 | 1.0 | 2.0 | 0.00 | 0.21 | 0.00 | 90 | 1018.6 |
| 20260504204104 | 53 | 55 | 1.0 | 2.0 | 0.00 | 0.21 | 0.00 | 90 | 1018.5 |
| 20260504203604 | 53 | 230 | 0.0 | 0.0 | 0.00 | 0.21 | 0.00 | 90 | 1018.4 |
| 20260504203104 | 53 | 230 | 0.0 | 1.0 | 0.00 | 0.21 | 0.00 | 90 | 1018.4 |
| 20260504201604 | 54 | 230 | 1.0 | 3.0 | 0.00 | 0.21 | 0.00 | 90 | 1018.4 |
| 20260504200604 | 54 | 230 | 1.0 | 2.0 | 0.00 | 0.21 | 0.00 | 90 | 1018.2 |
| 20260504200104 | 54 | 230 | 0.0 | 1.0 | 0.00 | 0.21 | 0.00 | 89 | 1018.1 |
| 20260504194604 | 54 | 230 | 1.0 | 2.0 | 0.00 | 0.21 | 0.00 | 89 | 1017.9 |
| 20260504193604 | 54 | 230 | 0.0 | 1.0 | 0.00 | 0.21 | 0.00 | 89 | 1017.9 |
| 20260504192604 | 55 | 230 | 0.0 | 0.0 | 0.00 | 0.21 | 0.00 | 89 | 1017.8 |
| 20260504192104 | 55 | 230 | 0.0 | 0.0 | 0.00 | 0.21 | 0.00 | 89 | 1017.8 |
| 20260504191104 | 55 | 230 | 0.0 | 1.0 | 0.00 | 0.21 | 0.00 | 89 | 1017.8 |
| 20260504190604 | 55 | 230 | 1.0 | 2.0 | 0.00 | 0.21 | 0.00 | 89 | 1017.8 |
| 20260504185604 | 55 | 230 | 0.0 | 0.0 | 0.00 | 0.21 | 0.00 | 89 | 1017.8 |
| 20260504184604 | 55 | 230 | 0.0 | 0.0 | 0.00 | 0.21 | 0.00 | 89 | 1017.6 |
| 20260504184104 | 55 | 230 | 0.0 | 2.0 | 0.00 | 0.21 | 0.00 | 89 | 1017.4 |
| 20260504183104 | 56 | 230 | 1.0 | 3.0 | 0.00 | 0.21 | 0.00 | 89 | 1017.2 |
| 20260504182604 | 56 | 230 | 1.0 | 2.0 | 0.00 | 0.21 | 0.00 | 89 | 1017.3 |
| 20260504182104 | 56 | 230 | 0.0 | 0.0 | 0.00 | 0.21 | 0.00 | 89 | 1017.2 |
| 20260504181104 | 56 | 230 | 0.0 | 2.0 | 0.00 | 0.21 | 0.00 | 88 | 1017.3 |
| 20260504180604 | 56 | 230 | 1.0 | 3.0 | 0.00 | 0.21 | 0.00 | 89 | 1017.3 |
| 20260504175604 | 57 | 230 | 2.0 | 3.0 | 0.00 | 0.21 | 0.00 | 88 | 1017.1 |
| 20260504175104 | 57 | 230 | 3.0 | 3.0 | 0.00 | 0.21 | 0.00 | 88 | 1017.1 |
| 20260504174604 | 57 | 307 | 2.0 | 3.0 | 0.00 | 0.21 | 0.00 | 88 | 1017.2 |
| 20260504174104 | 57 | 307 | 0.0 | 2.0 | 0.00 | 0.21 | 0.00 | 88 | 1017.1 |
| 20260504173605 | 58 | 307 | 0.0 | 1.0 | 0.00 | 0.21 | 0.00 | 88 | 1017.2 |
| 20260504173104 | 58 | 307 | 0.0 | 1.0 | 0.00 | 0.21 | 0.00 | 88 | 1017.1 |
| 20260504172604 | 58 | 307 | 0.0 | 1.0 | 0.00 | 0.21 | 0.00 | 88 | 1017.2 |
| 20260504172104 | 58 | 307 | 1.0 | 3.0 | 0.00 | 0.21 | 0.00 | 88 | 1017.2 |
| 20260504171604 | 58 | 307 | 1.0 | 2.0 | 0.00 | 0.21 | 0.00 | 89 | 1017.3 |
| 20260504170603 | 58 | 307 | 0.0 | 1.0 | 0.00 | 0.21 | 0.00 | 89 | 1017.3 |
| 20260504170104 | 58 | 307 | 0.0 | 0.0 | 0.00 | 0.21 | 0.00 | 89 | 1017.3 |
| 20260504151104 | 62 | 268 | 2.0 | 5.0 | 0.00 | 0.21 | 0.00 | 92 | 1017.0 |
| 20260504150604 | 62 | 257 | 3.0 | 5.0 | 0.00 | 0.21 | 0.00 | 92 | 1017.0 |
| 20260504141104 | 63 | 272 | 1.0 | 2.0 | 0.00 | 0.21 | 0.00 | 93 | 1017.0 |
| 20260504140604 | 63 | 272 | 2.0 | 7.0 | 0.00 | 0.21 | 0.00 | 93 | 1017.1 |
| 20260504140104 | 63 | 281 | 3.0 | 5.0 | 0.00 | 0.21 | 0.00 | 93 | 1017.1 |
| 20260504130604 | 63 | 259 | 4.0 | 8.0 | 0.00 | 0.21 | 0.21 | 93 | 1017.2 |
| 20260504130104 | 63 | 284 | 4.0 | 7.0 | 0.00 | 0.21 | 0.21 | 93 | 1017.2 |
| 20260504120104 | 62 | 270 | 3.0 | 5.0 | 0.00 | 0.21 | 0.21 | 92 | 1017.2 |
| 20260504110604 | 63 | 243 | 6.0 | 9.0 | 0.00 | 0.21 | 0.21 | 91 | 1016.7 |
| 20260504100604 | 65 | 245 | 1.0 | 2.0 | 0.00 | 0.21 | 0.21 | 89 | 1015.9 |
| 20260504100105 | 65 | 245 | 0.0 | 2.0 | 0.00 | 0.21 | 0.21 | 89 | 1015.9 |
| 20260504090104 | 68 | 336 | 2.0 | 3.0 | 0.00 | 0.21 | 0.21 | 81 | 1015.9 |
| 20260504081604 | 68 | 25 | 5.0 | 12.0 | 0.00 | 0.21 | 0.21 | 83 | 1015.4 |
| 20260504081104 | 68 | 27 | 3.0 | 6.0 | 0.00 | 0.21 | 0.21 | 83 | 1015.4 |
| 20260504080604 | 68 | 32 | 3.0 | 6.0 | 0.00 | 0.21 | 0.21 | 83 | 1015.5 |
| 20260504080104 | 68 | 30 | 3.0 | 6.0 | 0.00 | 0.21 | 0.21 | 83 | 1015.4 |